Year,Month,Day,Hour,Minute,Value (Times are PST for temperature in C)
2009,09,22,00,00,16.40
2009,09,22,00,01,16.40
2009,09,22,00,02,16.30
2009,09,22,00,03,16.30
2009,09,22,00,04,16.30
2009,09,22,00,05,16.30
2009,09,22,00,06,16.30
2009,09,22,00,07,16.20
2009,09,22,00,08,16.20
2009,09,22,00,09,16.20
2009,09,22,00,10,16.20
2009,09,22,00,11,16.20
2009,09,22,00,12,16.10
2009,09,22,00,13,16.00
2009,09,22,00,14,16.00
2009,09,22,00,15,15.90
2009,09,22,00,16,15.90
2009,09,22,00,17,15.80
2009,09,22,00,18,15.80
2009,09,22,00,19,15.80
2009,09,22,00,20,15.80
2009,09,22,00,21,15.80
2009,09,22,00,22,15.80
2009,09,22,00,23,15.90
2009,09,22,00,24,15.90
2009,09,22,00,25,15.90
2009,09,22,00,26,15.90
2009,09,22,00,27,15.90
2009,09,22,00,28,16.00
2009,09,22,00,29,16.00
2009,09,22,00,30,16.00
2009,09,22,00,31,16.00
2009,09,22,00,32,16.00
2009,09,22,00,33,16.00
2009,09,22,00,34,16.00
2009,09,22,00,35,16.00
2009,09,22,00,36,16.00
2009,09,22,00,37,16.00
2009,09,22,00,38,15.90
2009,09,22,00,39,15.90
2009,09,22,00,40,15.90
2009,09,22,00,41,15.90
2009,09,22,00,42,15.90
2009,09,22,00,43,15.90
2009,09,22,00,44,15.90
2009,09,22,00,45,15.90
2009,09,22,00,46,15.90
2009,09,22,00,47,15.80
2009,09,22,00,48,15.80
2009,09,22,00,49,15.80
2009,09,22,00,50,15.80
2009,09,22,00,51,15.80
2009,09,22,00,52,15.80
2009,09,22,00,53,15.80
2009,09,22,00,54,15.80
2009,09,22,00,55,15.80
2009,09,22,00,56,15.80
2009,09,22,00,57,15.80
2009,09,22,00,58,15.80
2009,09,22,00,59,15.80
2009,09,22,01,00,15.80
2009,09,22,01,01,15.80
2009,09,22,01,02,15.80
2009,09,22,01,03,15.80
2009,09,22,01,04,15.70
2009,09,22,01,05,15.70
2009,09,22,01,06,15.60
2009,09,22,01,07,15.50
2009,09,22,01,08,15.40
2009,09,22,01,09,15.40
2009,09,22,01,10,15.30
2009,09,22,01,11,15.30
2009,09,22,01,12,15.20
2009,09,22,01,13,15.10
2009,09,22,01,14,15.00
2009,09,22,01,15,15.00
2009,09,22,01,16,15.00
2009,09,22,01,17,14.80
2009,09,22,01,18,14.70
2009,09,22,01,19,14.70
2009,09,22,01,20,14.60
2009,09,22,01,21,14.50
2009,09,22,01,22,14.40
2009,09,22,01,23,14.30
2009,09,22,01,24,14.20
2009,09,22,01,25,14.20
2009,09,22,01,26,14.10
2009,09,22,01,27,14.10
2009,09,22,01,28,14.10
2009,09,22,01,29,14.00
2009,09,22,01,30,14.00
2009,09,22,01,31,13.90
2009,09,22,01,32,13.80
2009,09,22,01,33,13.80
2009,09,22,01,34,13.70
2009,09,22,01,35,13.70
2009,09,22,01,36,13.60
2009,09,22,01,37,13.50
2009,09,22,01,38,13.50
2009,09,22,01,39,13.40
2009,09,22,01,40,13.40
2009,09,22,01,41,13.30
2009,09,22,01,42,13.30
2009,09,22,01,43,13.30
2009,09,22,01,44,13.20
2009,09,22,01,45,13.20
2009,09,22,01,46,13.20
2009,09,22,01,47,13.20
2009,09,22,01,48,13.20
2009,09,22,01,49,13.10
2009,09,22,01,50,13.10
2009,09,22,01,51,13.10
2009,09,22,01,52,13.10
2009,09,22,01,53,13.10
2009,09,22,01,54,13.10
2009,09,22,01,55,13.10
2009,09,22,01,56,13.00
2009,09,22,01,57,13.00
2009,09,22,01,58,13.00
2009,09,22,01,59,13.00
2009,09,22,02,00,12.90
2009,09,22,02,01,12.90
2009,09,22,02,02,12.90
2009,09,22,02,03,12.90
2009,09,22,02,04,12.90
2009,09,22,02,05,12.90
2009,09,22,02,06,12.90
2009,09,22,02,07,12.90
2009,09,22,02,08,12.90
2009,09,22,02,09,12.90
2009,09,22,02,10,12.90
2009,09,22,02,11,12.90
2009,09,22,02,12,12.90
2009,09,22,02,13,12.90
2009,09,22,02,14,12.90
2009,09,22,02,15,12.90
2009,09,22,02,16,12.90
2009,09,22,02,17,12.90
2009,09,22,02,18,12.90
2009,09,22,02,19,12.90
2009,09,22,02,20,12.90
2009,09,22,02,21,12.90
2009,09,22,02,22,12.90
2009,09,22,02,23,13.00
2009,09,22,02,24,13.00
2009,09,22,02,25,13.10
2009,09,22,02,26,13.10
2009,09,22,02,27,13.10
2009,09,22,02,28,13.10
2009,09,22,02,29,13.10
2009,09,22,02,30,13.20
2009,09,22,02,31,13.20
2009,09,22,02,32,13.20
2009,09,22,02,33,13.20
2009,09,22,02,34,13.20
2009,09,22,02,35,13.20
2009,09,22,02,36,13.20
2009,09,22,02,37,13.20
2009,09,22,02,38,13.10
2009,09,22,02,39,13.10
2009,09,22,02,40,13.00
2009,09,22,02,41,13.00
2009,09,22,02,42,12.90
2009,09,22,02,43,12.90
2009,09,22,02,44,12.80
2009,09,22,02,45,12.80
2009,09,22,02,46,12.80
2009,09,22,02,47,12.70
2009,09,22,02,48,12.70
2009,09,22,02,49,12.70
2009,09,22,02,50,12.70
2009,09,22,02,51,12.60
2009,09,22,02,52,12.60
2009,09,22,02,53,12.60
2009,09,22,02,54,12.50
2009,09,22,02,55,12.50
2009,09,22,02,56,12.50
2009,09,22,02,57,12.50
2009,09,22,02,58,12.50
2009,09,22,02,59,12.50
2009,09,22,03,00,12.50
2009,09,22,03,01,12.50
2009,09,22,03,02,12.50
2009,09,22,03,03,12.50
2009,09,22,03,04,12.50
2009,09,22,03,05,12.60
2009,09,22,03,06,12.60
2009,09,22,03,07,12.60
2009,09,22,03,08,12.60
2009,09,22,03,09,12.50
2009,09,22,03,10,12.50
2009,09,22,03,11,12.50
2009,09,22,03,12,12.50
2009,09,22,03,13,12.60
2009,09,22,03,14,12.60
2009,09,22,03,15,12.60
2009,09,22,03,16,12.60
2009,09,22,03,17,12.60
2009,09,22,03,18,12.60
2009,09,22,03,19,12.70
2009,09,22,03,20,12.70
2009,09,22,03,21,12.70
2009,09,22,03,22,12.70
2009,09,22,03,23,12.70
2009,09,22,03,24,12.70
2009,09,22,03,25,12.70
2009,09,22,03,26,12.70
2009,09,22,03,27,12.70
2009,09,22,03,28,12.70
2009,09,22,03,29,12.70
2009,09,22,03,30,12.60
2009,09,22,03,31,12.60
2009,09,22,03,32,12.60
2009,09,22,03,33,12.50
2009,09,22,03,34,12.50
2009,09,22,03,35,12.40
2009,09,22,03,36,12.40
2009,09,22,03,37,12.30
2009,09,22,03,38,12.30
2009,09,22,03,39,12.30
2009,09,22,03,40,12.20
2009,09,22,03,41,12.20
2009,09,22,03,42,12.20
2009,09,22,03,43,12.20
2009,09,22,03,44,12.20
2009,09,22,03,45,12.30
2009,09,22,03,46,12.30
2009,09,22,03,47,12.30
2009,09,22,03,48,12.30
2009,09,22,03,49,12.30
2009,09,22,03,50,12.30
2009,09,22,03,51,12.30
2009,09,22,03,52,12.30
2009,09,22,03,53,12.30
2009,09,22,03,54,12.30
2009,09,22,03,55,12.30
2009,09,22,03,56,12.30
2009,09,22,03,57,12.30
2009,09,22,03,58,12.30
2009,09,22,03,59,12.40
2009,09,22,04,00,12.40
2009,09,22,04,01,12.40
2009,09,22,04,02,12.40
2009,09,22,04,03,12.40
2009,09,22,04,04,12.30
2009,09,22,04,05,12.30
2009,09,22,04,06,12.30
2009,09,22,04,07,12.30
2009,09,22,04,08,12.30
2009,09,22,04,09,12.30
2009,09,22,04,10,12.30
2009,09,22,04,11,12.30
2009,09,22,04,12,12.30
2009,09,22,04,13,12.30
2009,09,22,04,14,12.20
2009,09,22,04,15,12.30
2009,09,22,04,16,12.30
2009,09,22,04,17,12.30
2009,09,22,04,18,12.30
2009,09,22,04,19,12.30
2009,09,22,04,20,12.40
2009,09,22,04,21,12.40
2009,09,22,04,22,12.40
2009,09,22,04,23,12.40
2009,09,22,04,24,12.40
2009,09,22,04,25,12.30
2009,09,22,04,26,12.20
2009,09,22,04,27,12.20
2009,09,22,04,28,12.10
2009,09,22,04,29,12.00
2009,09,22,04,30,12.00
2009,09,22,04,31,11.90
2009,09,22,04,32,11.90
2009,09,22,04,33,11.80
2009,09,22,04,34,11.80
2009,09,22,04,35,11.80
2009,09,22,04,36,11.80
2009,09,22,04,37,11.80
2009,09,22,04,38,11.80
2009,09,22,04,39,11.70
2009,09,22,04,40,11.70
2009,09,22,04,41,11.70
2009,09,22,04,42,11.70
2009,09,22,04,43,11.60
2009,09,22,04,44,11.60
2009,09,22,04,45,11.60
2009,09,22,04,46,11.60
2009,09,22,04,47,11.60
2009,09,22,04,48,11.60
2009,09,22,04,49,11.60
2009,09,22,04,50,11.60
2009,09,22,04,51,11.70
2009,09,22,04,52,11.70
2009,09,22,04,53,11.80
2009,09,22,04,54,11.80
2009,09,22,04,55,11.80
2009,09,22,04,56,11.70
2009,09,22,04,57,11.70
2009,09,22,04,58,11.60
2009,09,22,04,59,11.60
2009,09,22,05,00,11.50
2009,09,22,05,01,11.50
2009,09,22,05,02,11.50
2009,09,22,05,03,11.50
2009,09,22,05,04,11.50
2009,09,22,05,05,11.50
2009,09,22,05,06,11.50
2009,09,22,05,07,11.60
2009,09,22,05,08,11.60
2009,09,22,05,09,11.60
2009,09,22,05,10,11.60
2009,09,22,05,11,11.60
2009,09,22,05,12,11.60
2009,09,22,05,13,11.60
2009,09,22,05,14,11.60
2009,09,22,05,15,11.60
2009,09,22,05,16,11.60
2009,09,22,05,17,11.60
2009,09,22,05,18,11.60
2009,09,22,05,19,11.60
2009,09,22,05,20,11.60
2009,09,22,05,21,11.60
2009,09,22,05,22,11.50
2009,09,22,05,23,11.50
2009,09,22,05,24,11.50
2009,09,22,05,25,11.50
2009,09,22,05,26,11.40
2009,09,22,05,27,11.40
2009,09,22,05,28,11.40
2009,09,22,05,29,11.40
2009,09,22,05,30,11.40
2009,09,22,05,31,11.40
2009,09,22,05,32,11.40
2009,09,22,05,33,11.40
2009,09,22,05,34,11.40
2009,09,22,05,35,11.40
2009,09,22,05,36,11.40
2009,09,22,05,37,11.40
2009,09,22,05,38,11.30
2009,09,22,05,39,11.30
2009,09,22,05,40,11.30
2009,09,22,05,41,11.30
2009,09,22,05,42,11.30
2009,09,22,05,43,11.30
2009,09,22,05,44,11.20
2009,09,22,05,45,11.20
2009,09,22,05,46,11.10
2009,09,22,05,47,11.10
2009,09,22,05,48,11.10
2009,09,22,05,49,11.00
2009,09,22,05,50,11.00
2009,09,22,05,51,11.00
2009,09,22,05,52,11.00
2009,09,22,05,53,11.00
2009,09,22,05,54,11.00
2009,09,22,05,55,11.00
2009,09,22,05,56,11.00
2009,09,22,05,57,11.10
2009,09,22,05,58,11.10
2009,09,22,05,59,11.10
2009,09,22,06,00,11.20
2009,09,22,06,01,11.20
2009,09,22,06,02,11.20
2009,09,22,06,03,11.10
2009,09,22,06,04,11.10
2009,09,22,06,05,11.10
2009,09,22,06,06,11.00
2009,09,22,06,07,11.00
2009,09,22,06,08,10.90
2009,09,22,06,09,10.90
2009,09,22,06,10,10.90
2009,09,22,06,11,10.90
2009,09,22,06,12,11.00
2009,09,22,06,13,11.00
2009,09,22,06,14,11.00
2009,09,22,06,15,11.10
2009,09,22,06,16,11.10
2009,09,22,06,17,11.20
2009,09,22,06,18,11.20
2009,09,22,06,19,11.20
2009,09,22,06,20,11.20
2009,09,22,06,21,11.20
2009,09,22,06,22,11.20
2009,09,22,06,23,11.20
2009,09,22,06,24,11.20
2009,09,22,06,25,11.20
2009,09,22,06,26,11.20
2009,09,22,06,27,11.20
2009,09,22,06,28,11.20
2009,09,22,06,29,11.10
2009,09,22,06,30,11.10
2009,09,22,06,31,11.10
2009,09,22,06,32,11.10
2009,09,22,06,33,11.10
2009,09,22,06,34,11.10
2009,09,22,06,35,11.10
2009,09,22,06,36,11.00
2009,09,22,06,37,11.00
2009,09,22,06,38,11.00
2009,09,22,06,39,11.00
2009,09,22,06,40,11.00
2009,09,22,06,41,11.00
2009,09,22,06,42,11.00
2009,09,22,06,43,11.00
2009,09,22,06,44,11.00
2009,09,22,06,45,11.00
2009,09,22,06,46,11.00
2009,09,22,06,47,11.00
2009,09,22,06,48,10.90
2009,09,22,06,49,10.90
2009,09,22,06,50,10.90
2009,09,22,06,51,10.80
2009,09,22,06,52,10.80
2009,09,22,06,53,10.80
2009,09,22,06,54,10.80
2009,09,22,06,55,10.80
2009,09,22,06,56,10.80
2009,09,22,06,57,10.80
2009,09,22,06,58,10.70
2009,09,22,06,59,10.70
2009,09,22,07,00,10.70
2009,09,22,07,01,10.70
2009,09,22,07,02,10.70
2009,09,22,07,03,10.70
2009,09,22,07,04,10.70
2009,09,22,07,05,10.70
2009,09,22,07,06,10.70
2009,09,22,07,07,10.70
2009,09,22,07,08,10.70
2009,09,22,07,09,10.70
2009,09,22,07,10,10.70
2009,09,22,07,11,10.70
2009,09,22,07,12,10.70
2009,09,22,07,13,10.70
2009,09,22,07,14,10.60
2009,09,22,07,15,10.60
2009,09,22,07,16,10.50
2009,09,22,07,17,10.50
2009,09,22,07,18,10.40
2009,09,22,07,19,10.40
2009,09,22,07,20,10.40
2009,09,22,07,21,10.40
2009,09,22,07,22,10.40
2009,09,22,07,23,10.40
2009,09,22,07,24,10.40
2009,09,22,07,25,10.50
2009,09,22,07,26,10.50
2009,09,22,07,27,10.50
2009,09,22,07,28,10.60
2009,09,22,07,29,10.60
2009,09,22,07,30,10.60
2009,09,22,07,31,10.70
2009,09,22,07,32,10.70
2009,09,22,07,33,10.70
2009,09,22,07,34,10.70
2009,09,22,07,35,10.70
2009,09,22,07,36,10.80
2009,09,22,07,37,10.80
2009,09,22,07,38,10.80
2009,09,22,07,39,10.90
2009,09,22,07,40,10.90
2009,09,22,07,41,10.90
2009,09,22,07,42,10.90
2009,09,22,07,43,11.00
2009,09,22,07,44,11.00
2009,09,22,07,45,11.00
2009,09,22,07,46,11.10
2009,09,22,07,47,11.10
2009,09,22,07,48,11.10
2009,09,22,07,49,11.10
2009,09,22,07,50,11.20
2009,09,22,07,51,11.20
2009,09,22,07,52,11.20
2009,09,22,07,53,11.20
2009,09,22,07,54,11.30
2009,09,22,07,55,11.30
2009,09,22,07,56,11.30
2009,09,22,07,57,11.30
2009,09,22,07,58,11.40
2009,09,22,07,59,11.40
2009,09,22,08,00,11.40
2009,09,22,08,01,11.50
2009,09,22,08,02,11.50
2009,09,22,08,03,11.50
2009,09,22,08,04,11.60
2009,09,22,08,05,11.60
2009,09,22,08,06,11.60
2009,09,22,08,07,11.60
2009,09,22,08,08,11.60
2009,09,22,08,09,11.70
2009,09,22,08,10,11.70
2009,09,22,08,11,11.70
2009,09,22,08,12,11.70
2009,09,22,08,13,11.80
2009,09,22,08,14,11.80
2009,09,22,08,15,11.80
2009,09,22,08,16,11.80
2009,09,22,08,17,11.90
2009,09,22,08,18,11.90
2009,09,22,08,19,11.90
2009,09,22,08,20,11.90
2009,09,22,08,21,12.00
2009,09,22,08,22,12.00
2009,09,22,08,23,12.10
2009,09,22,08,24,12.10
2009,09,22,08,25,12.10
2009,09,22,08,26,12.20
2009,09,22,08,27,12.20
2009,09,22,08,28,12.20
2009,09,22,08,29,12.20
2009,09,22,08,30,12.30
2009,09,22,08,31,12.30
2009,09,22,08,32,12.30
2009,09,22,08,33,12.40
2009,09,22,08,34,12.40
2009,09,22,08,35,12.40
2009,09,22,08,36,12.50
2009,09,22,08,37,12.50
2009,09,22,08,38,12.60
2009,09,22,08,39,12.60
2009,09,22,08,40,12.60
2009,09,22,08,41,12.70
2009,09,22,08,42,12.70
2009,09,22,08,43,12.70
2009,09,22,08,44,12.80
2009,09,22,08,45,12.80
2009,09,22,08,46,12.80
2009,09,22,08,47,12.80
2009,09,22,08,48,12.80
2009,09,22,08,49,12.80
2009,09,22,08,50,12.90
2009,09,22,08,51,12.90
2009,09,22,08,52,12.90
2009,09,22,08,53,13.00
2009,09,22,08,54,13.00
2009,09,22,08,55,13.00
2009,09,22,08,56,13.00
2009,09,22,08,57,13.00
2009,09,22,08,58,13.10
2009,09,22,08,59,13.10
2009,09,22,09,00,13.10
2009,09,22,09,01,13.20
2009,09,22,09,02,13.20
2009,09,22,09,03,13.20
2009,09,22,09,04,13.30
2009,09,22,09,05,13.30
2009,09,22,09,06,13.30
2009,09,22,09,07,13.40
2009,09,22,09,08,13.40
2009,09,22,09,09,13.50
2009,09,22,09,10,13.50
2009,09,22,09,11,13.60
2009,09,22,09,12,13.60
2009,09,22,09,13,13.70
2009,09,22,09,14,13.70
2009,09,22,09,15,13.80
2009,09,22,09,16,13.80
2009,09,22,09,17,13.90
2009,09,22,09,18,14.00
2009,09,22,09,19,14.10
2009,09,22,09,20,14.10
2009,09,22,09,21,14.20
2009,09,22,09,22,14.20
2009,09,22,09,23,14.20
2009,09,22,09,24,14.20
2009,09,22,09,25,14.30
2009,09,22,09,26,14.30
2009,09,22,09,27,14.30
2009,09,22,09,28,14.30
2009,09,22,09,29,14.40
2009,09,22,09,30,14.40
2009,09,22,09,31,14.40
2009,09,22,09,32,14.50
2009,09,22,09,33,14.50
2009,09,22,09,34,14.60
2009,09,22,09,35,14.60
2009,09,22,09,36,14.70
2009,09,22,09,37,14.80
2009,09,22,09,38,14.90
2009,09,22,09,39,15.00
2009,09,22,09,40,15.00
2009,09,22,09,41,15.00
2009,09,22,09,42,15.00
2009,09,22,09,43,15.10
2009,09,22,09,44,15.20
2009,09,22,09,45,15.30
2009,09,22,09,46,15.30
2009,09,22,09,47,15.30
2009,09,22,09,48,15.40
2009,09,22,09,49,15.50
2009,09,22,09,50,15.50
2009,09,22,09,51,15.60
2009,09,22,09,52,15.60
2009,09,22,09,53,15.60
2009,09,22,09,54,15.70
2009,09,22,09,55,15.70
2009,09,22,09,56,15.80
2009,09,22,09,57,15.90
2009,09,22,09,58,16.00
2009,09,22,09,59,16.10
2009,09,22,10,00,16.20
2009,09,22,10,01,16.30
2009,09,22,10,02,16.40
2009,09,22,10,03,16.40
2009,09,22,10,04,16.40
2009,09,22,10,05,16.40
2009,09,22,10,06,16.40
2009,09,22,10,07,16.40
2009,09,22,10,08,16.40
2009,09,22,10,09,16.40
2009,09,22,10,10,16.40
2009,09,22,10,11,16.30
2009,09,22,10,12,16.20
2009,09,22,10,13,16.20
2009,09,22,10,14,16.20
2009,09,22,10,15,16.10
2009,09,22,10,16,16.10
2009,09,22,10,17,16.10
2009,09,22,10,18,16.20
2009,09,22,10,19,16.20
2009,09,22,10,20,16.30
2009,09,22,10,21,16.40
2009,09,22,10,22,16.50
2009,09,22,10,23,16.60
2009,09,22,10,24,16.70
2009,09,22,10,25,16.80
2009,09,22,10,26,16.80
2009,09,22,10,27,16.90
2009,09,22,10,28,17.00
2009,09,22,10,29,17.10
2009,09,22,10,30,17.20
2009,09,22,10,31,17.20
2009,09,22,10,32,17.30
2009,09,22,10,33,17.30
2009,09,22,10,34,17.40
2009,09,22,10,35,17.50
2009,09,22,10,36,17.60
2009,09,22,10,37,17.60
2009,09,22,10,38,17.70
2009,09,22,10,39,17.70
2009,09,22,10,40,17.80
2009,09,22,10,41,17.90
2009,09,22,10,42,17.90
2009,09,22,10,43,17.90
2009,09,22,10,44,18.00
2009,09,22,10,45,18.00
2009,09,22,10,46,18.00
2009,09,22,10,47,18.00
2009,09,22,10,48,18.10
2009,09,22,10,49,18.20
2009,09,22,10,50,18.20
2009,09,22,10,51,18.30
2009,09,22,10,52,18.30
2009,09,22,10,53,18.30
2009,09,22,10,54,18.30
2009,09,22,10,55,18.30
2009,09,22,10,56,18.30
2009,09,22,10,57,18.20
2009,09,22,10,58,18.20
2009,09,22,10,59,18.10
2009,09,22,11,00,18.10
2009,09,22,11,01,18.20
2009,09,22,11,02,18.20
2009,09,22,11,03,18.30
2009,09,22,11,04,18.40
2009,09,22,11,05,18.50
2009,09,22,11,06,18.60
2009,09,22,11,07,18.70
2009,09,22,11,08,18.70
2009,09,22,11,09,18.80
2009,09,22,11,10,18.90
2009,09,22,11,11,19.10
2009,09,22,11,12,19.30
2009,09,22,11,13,19.60
2009,09,22,11,14,19.80
2009,09,22,11,15,20.10
2009,09,22,11,16,20.50
2009,09,22,11,17,20.70
2009,09,22,11,18,20.80
2009,09,22,11,19,20.80
2009,09,22,11,20,20.70
2009,09,22,11,21,20.60
2009,09,22,11,22,20.50
2009,09,22,11,23,20.50
2009,09,22,11,24,20.50
2009,09,22,11,25,20.50
2009,09,22,11,26,20.60
2009,09,22,11,27,20.60
2009,09,22,11,28,20.60
2009,09,22,11,29,20.70
2009,09,22,11,30,20.70
2009,09,22,11,31,20.80
2009,09,22,11,32,20.80
2009,09,22,11,33,20.80
2009,09,22,11,34,20.80
2009,09,22,11,35,20.80
2009,09,22,11,36,21.00
2009,09,22,11,37,21.10
2009,09,22,11,38,21.20
2009,09,22,11,39,21.40
2009,09,22,11,40,21.40
2009,09,22,11,41,21.40
2009,09,22,11,42,21.40
2009,09,22,11,43,21.50
2009,09,22,11,44,21.60
2009,09,22,11,45,21.60
2009,09,22,11,46,21.60
2009,09,22,11,47,21.70
2009,09,22,11,48,21.80
2009,09,22,11,49,22.00
2009,09,22,11,50,22.10
2009,09,22,11,51,22.30
2009,09,22,11,52,22.40
2009,09,22,11,53,22.40
2009,09,22,11,54,22.40
2009,09,22,11,55,22.30
2009,09,22,11,56,22.30
2009,09,22,11,57,22.20
2009,09,22,11,58,22.10
2009,09,22,11,59,22.00
2009,09,22,12,00,21.90
2009,09,22,12,01,21.80
2009,09,22,12,02,21.80
2009,09,22,12,03,21.80
2009,09,22,12,04,21.80
2009,09,22,12,05,21.80
2009,09,22,12,06,21.80
2009,09,22,12,07,21.70
2009,09,22,12,08,21.80
2009,09,22,12,09,21.80
2009,09,22,12,10,21.80
2009,09,22,12,11,21.70
2009,09,22,12,12,21.70
2009,09,22,12,13,21.70
2009,09,22,12,14,21.70
2009,09,22,12,15,21.70
2009,09,22,12,16,21.70
2009,09,22,12,17,21.70
2009,09,22,12,18,21.80
2009,09,22,12,19,21.80
2009,09,22,12,20,22.00
2009,09,22,12,21,22.00
2009,09,22,12,22,21.90
2009,09,22,12,23,21.80
2009,09,22,12,24,21.70
2009,09,22,12,25,21.60
2009,09,22,12,26,21.50
2009,09,22,12,27,21.40
2009,09,22,12,28,21.50
2009,09,22,12,29,21.50
2009,09,22,12,30,21.60
2009,09,22,12,31,21.60
2009,09,22,12,32,21.70
2009,09,22,12,33,21.70
2009,09,22,12,34,21.80
2009,09,22,12,35,21.80
2009,09,22,12,36,21.90
2009,09,22,12,37,22.00
2009,09,22,12,38,22.10
2009,09,22,12,39,22.00
2009,09,22,12,40,22.00
2009,09,22,12,41,21.90
2009,09,22,12,42,21.80
2009,09,22,12,43,21.80
2009,09,22,12,44,21.90
2009,09,22,12,45,21.90
2009,09,22,12,46,21.80
2009,09,22,12,47,21.90
2009,09,22,12,48,22.00
2009,09,22,12,49,22.00
2009,09,22,12,50,22.10
2009,09,22,12,51,22.10
2009,09,22,12,52,22.20
2009,09,22,12,53,22.30
2009,09,22,12,54,22.30
2009,09,22,12,55,22.20
2009,09,22,12,56,22.20
2009,09,22,12,57,22.10
2009,09,22,12,58,22.10
2009,09,22,12,59,22.00
2009,09,22,13,00,21.90
2009,09,22,13,01,21.90
2009,09,22,13,02,22.00
2009,09,22,13,03,22.10
2009,09,22,13,04,22.30
2009,09,22,13,05,22.40
2009,09,22,13,06,22.40
2009,09,22,13,07,22.40
2009,09,22,13,08,22.40
2009,09,22,13,09,22.40
2009,09,22,13,10,22.40
2009,09,22,13,11,22.50
2009,09,22,13,12,22.60
2009,09,22,13,13,22.60
2009,09,22,13,14,22.70
2009,09,22,13,15,22.80
2009,09,22,13,16,22.90
2009,09,22,13,17,23.00
2009,09,22,13,18,23.10
2009,09,22,13,19,23.10
2009,09,22,13,20,23.20
2009,09,22,13,21,23.20
2009,09,22,13,22,23.20
2009,09,22,13,23,23.20
2009,09,22,13,24,23.20
2009,09,22,13,25,23.30
2009,09,22,13,26,23.30
2009,09,22,13,27,23.50
2009,09,22,13,28,23.60
2009,09,22,13,29,23.70
2009,09,22,13,30,23.70
2009,09,22,13,31,23.60
2009,09,22,13,32,23.50
2009,09,22,13,33,23.50
2009,09,22,13,34,23.50
2009,09,22,13,35,23.50
2009,09,22,13,36,23.50
2009,09,22,13,37,23.50
2009,09,22,13,38,23.40
2009,09,22,13,39,23.40
2009,09,22,13,40,23.40
2009,09,22,13,41,23.40
2009,09,22,13,42,23.50
2009,09,22,13,43,23.60
2009,09,22,13,44,23.60
2009,09,22,13,45,23.60
2009,09,22,13,46,23.70
2009,09,22,13,47,23.70
2009,09,22,13,48,23.80
2009,09,22,13,49,23.80
2009,09,22,13,50,23.90
2009,09,22,13,51,23.90
2009,09,22,13,52,23.80
2009,09,22,13,53,23.90
2009,09,22,13,54,24.00
2009,09,22,13,55,24.10
2009,09,22,13,56,24.30
2009,09,22,13,57,24.50
2009,09,22,13,58,24.60
2009,09,22,13,59,24.70
2009,09,22,14,00,24.80
2009,09,22,14,01,24.70
2009,09,22,14,02,24.70
2009,09,22,14,03,24.70
2009,09,22,14,04,24.70
2009,09,22,14,05,24.70
2009,09,22,14,06,24.70
2009,09,22,14,07,24.70
2009,09,22,14,08,24.70
2009,09,22,14,09,24.70
2009,09,22,14,10,24.60
2009,09,22,14,11,24.60
2009,09,22,14,12,24.60
2009,09,22,14,13,24.50
2009,09,22,14,14,24.50
2009,09,22,14,15,24.60
2009,09,22,14,16,24.70
2009,09,22,14,17,24.70
2009,09,22,14,18,24.70
2009,09,22,14,19,24.70
2009,09,22,14,20,24.80
2009,09,22,14,21,25.00
2009,09,22,14,22,25.00
2009,09,22,14,23,25.10
2009,09,22,14,24,25.20
2009,09,22,14,25,25.20
2009,09,22,14,26,25.20
2009,09,22,14,27,25.10
2009,09,22,14,28,25.10
2009,09,22,14,29,25.10
2009,09,22,14,30,25.10
2009,09,22,14,31,25.20
2009,09,22,14,32,25.10
2009,09,22,14,33,25.10
2009,09,22,14,34,25.10
2009,09,22,14,35,25.10
2009,09,22,14,36,25.10
2009,09,22,14,37,25.10
2009,09,22,14,38,25.10
2009,09,22,14,39,25.20
2009,09,22,14,40,25.20
2009,09,22,14,41,25.10
2009,09,22,14,42,25.10
2009,09,22,14,43,25.10
2009,09,22,14,44,25.10
2009,09,22,14,45,24.90
2009,09,22,14,46,24.80
2009,09,22,14,47,24.70
2009,09,22,14,48,24.70
2009,09,22,14,49,24.70
2009,09,22,14,50,24.70
2009,09,22,14,51,24.80
2009,09,22,14,52,24.80
2009,09,22,14,53,24.80
2009,09,22,14,54,24.80
2009,09,22,14,55,24.80
2009,09,22,14,56,24.80
2009,09,22,14,57,24.80
2009,09,22,14,58,24.80
2009,09,22,14,59,24.90
2009,09,22,15,00,24.90
2009,09,22,15,01,24.90
2009,09,22,15,02,24.90
2009,09,22,15,03,25.00
2009,09,22,15,04,24.90
2009,09,22,15,05,24.90
2009,09,22,15,06,24.90
2009,09,22,15,07,24.80
2009,09,22,15,08,24.80
2009,09,22,15,09,24.80
2009,09,22,15,10,24.90
2009,09,22,15,11,24.90
2009,09,22,15,12,24.90
2009,09,22,15,13,25.00
2009,09,22,15,14,25.00
2009,09,22,15,15,25.10
2009,09,22,15,16,25.10
2009,09,22,15,17,25.10
2009,09,22,15,18,25.10
2009,09,22,15,19,25.10
2009,09,22,15,20,25.10
2009,09,22,15,21,25.10
2009,09,22,15,22,25.10
2009,09,22,15,23,25.20
2009,09,22,15,24,25.30
2009,09,22,15,25,25.30
2009,09,22,15,26,25.20
2009,09,22,15,27,25.10
2009,09,22,15,28,25.00
2009,09,22,15,29,24.90
2009,09,22,15,30,24.90
2009,09,22,15,31,24.90
2009,09,22,15,32,24.90
2009,09,22,15,33,24.90
2009,09,22,15,34,24.90
2009,09,22,15,35,24.80
2009,09,22,15,36,24.80
2009,09,22,15,37,24.90
2009,09,22,15,38,24.90
2009,09,22,15,39,25.00
2009,09,22,15,40,25.00
2009,09,22,15,41,25.10
2009,09,22,15,42,25.10
2009,09,22,15,43,25.10
2009,09,22,15,44,25.10
2009,09,22,15,45,25.10
2009,09,22,15,46,25.10
2009,09,22,15,47,25.10
2009,09,22,15,48,25.10
2009,09,22,15,49,25.10
2009,09,22,15,50,25.10
2009,09,22,15,51,25.20
2009,09,22,15,52,25.30
2009,09,22,15,53,25.30
2009,09,22,15,54,25.40
2009,09,22,15,55,25.50
2009,09,22,15,56,25.50
2009,09,22,15,57,25.50
2009,09,22,15,58,25.40
2009,09,22,15,59,25.30
2009,09,22,16,00,25.20
2009,09,22,16,01,25.10
2009,09,22,16,02,25.00
2009,09,22,16,03,25.00
2009,09,22,16,04,24.90
2009,09,22,16,05,24.90
2009,09,22,16,06,24.80
2009,09,22,16,07,24.70
2009,09,22,16,08,24.70
2009,09,22,16,09,24.60
2009,09,22,16,10,24.60
2009,09,22,16,11,24.70
2009,09,22,16,12,24.70
2009,09,22,16,13,24.80
2009,09,22,16,14,24.80
2009,09,22,16,15,24.80
2009,09,22,16,16,24.80
2009,09,22,16,17,24.70
2009,09,22,16,18,24.70
2009,09,22,16,19,24.70
2009,09,22,16,20,24.70
2009,09,22,16,21,24.70
2009,09,22,16,22,24.70
2009,09,22,16,23,24.70
2009,09,22,16,24,24.80
2009,09,22,16,25,24.90
2009,09,22,16,26,24.90
2009,09,22,16,27,25.00
2009,09,22,16,28,25.10
2009,09,22,16,29,25.10
2009,09,22,16,30,25.10
2009,09,22,16,31,25.10
2009,09,22,16,32,25.10
2009,09,22,16,33,25.10
2009,09,22,16,34,25.00
2009,09,22,16,35,24.90
2009,09,22,16,36,24.90
2009,09,22,16,37,24.90
2009,09,22,16,38,25.00
2009,09,22,16,39,25.00
2009,09,22,16,40,25.00
2009,09,22,16,41,25.10
2009,09,22,16,42,25.10
2009,09,22,16,43,25.20
2009,09,22,16,44,25.30
2009,09,22,16,45,25.40
2009,09,22,16,46,25.40
2009,09,22,16,47,25.50
2009,09,22,16,48,25.50
2009,09,22,16,49,25.60
2009,09,22,16,50,25.50
2009,09,22,16,51,25.40
2009,09,22,16,52,25.30
2009,09,22,16,53,25.30
2009,09,22,16,54,25.30
2009,09,22,16,55,25.30
2009,09,22,16,56,25.30
2009,09,22,16,57,25.40
2009,09,22,16,58,25.40
2009,09,22,16,59,25.30
2009,09,22,17,00,25.40
2009,09,22,17,01,25.40
2009,09,22,17,02,25.30
2009,09,22,17,03,25.40
2009,09,22,17,04,25.40
2009,09,22,17,05,25.40
2009,09,22,17,06,25.50
2009,09,22,17,07,25.50
2009,09,22,17,08,25.60
2009,09,22,17,09,25.70
2009,09,22,17,10,25.80
2009,09,22,17,11,25.80
2009,09,22,17,12,25.90
2009,09,22,17,13,25.90
2009,09,22,17,14,25.90
2009,09,22,17,15,26.00
2009,09,22,17,16,26.00
2009,09,22,17,17,25.90
2009,09,22,17,18,25.90
2009,09,22,17,19,25.90